Jackson, Tennessee, United States (38301)
Lat: 35.61N, Lon: 88.81W
Wx Zone: TNZ052
Local Info
Past Weather Observations for Sunday, August 28, 2016

NOTE: This archive is for the closest National Weather Service station to Jackson. Information may differ from the station used for current weather conditions.

Click here for Long-term Archive

Time Weather Temperature Dewpoint Humidity Pressure Winds Precip Visibility
23:53
Clear
75°F / 24°C 73°F / 23°C 94% 30.09 in
(1019 mb)
Calm - 10SM
22:53
Clear
75°F / 24°C 73°F / 23°C 94% 30.09 in
(1019 mb)
Calm - 10SM
21:53
Clear
77°F / 25°C 75°F / 24°C 94% 30.12 in
(1020 mb)
Calm - 10SM
20:53
Clear
79°F / 26°C 73°F / 23°C 84% 30.09 in
(1019 mb)
Calm - 10SM
19:53
Clear
79°F / 26°C 75°F / 24°C 89% 30.09 in
(1019 mb)
Calm - 10SM
18:53
Clear
81°F / 27°C 75°F / 24°C 84% 30.06 in
(1018 mb)
Calm - 10SM
17:53
Clear
86°F / 30°C 75°F / 24°C 70% 30.06 in
(1018 mb)
Calm - 10SM
16:53
Clear
90°F / 32°C 73°F / 23°C 59% 30.04 in
(1017 mb)
ESE 4.6 mph
(ESE 7 kph)
- 10SM
15:53
Clear
91°F / 33°C 73°F / 23°C 56% 30.04 in
(1017 mb)
SE 4.6 mph
(SE 7 kph)
- 10SM
14:53
Clear
91°F / 33°C 72°F / 22°C 52% 30.06 in
(1018 mb)
Variable 4.6 mph
(Variable 7 kph)
- 10SM
13:53
Partly Cloudy
91°F / 33°C 72°F / 22°C 52% 30.09 in
(1019 mb)
Variable 4.6 mph
(Variable 7 kph)
- 10SM
12:53
Partly Cloudy
93°F / 34°C 72°F / 22°C 49% 30.12 in
(1020 mb)
SE 3.5 mph
(SE 6 kph)
- 10SM
11:53
Clear
91°F / 33°C 73°F / 23°C 56% 30.12 in
(1020 mb)
SE 4.6 mph
(SE 7 kph)
- 10SM
10:53
Clear
90°F / 32°C 77°F / 25°C 67% 30.12 in
(1020 mb)
E 8.1 mph
(E 13 kph)
- 10SM
09:53
Clear
88°F / 31°C 75°F / 24°C 66% 30.15 in
(1021 mb)
Calm - 10SM
08:53
Partly Cloudy
82°F / 28°C 75°F / 24°C 79% 30.15 in
(1021 mb)
ENE 3.5 mph
(ENE 6 kph)
- 10SM
07:53
Clear
81°F / 27°C 75°F / 24°C 84% 30.12 in
(1020 mb)
E 3.5 mph
(E 6 kph)
- 10SM
06:53
Partly Cloudy
73°F / 23°C 73°F / 23°C 100% 30.12 in
(1020 mb)
Calm - 10SM
05:53
Clear
Fog And Mist
72°F / 22°C 72°F / 22°C 100% 30.12 in
(1020 mb)
Calm - 6SM
05:49
Partly Cloudy
Fog And Mist
72°F / 22°C 72°F / 22°C 100% 30.12 in
(1020 mb)
Calm - 3SM
05:46
Partly Cloudy
Fog And Mist
72°F / 22°C 72°F / 22°C 100% 30.09 in
(1019 mb)
Calm - 1SM
05:38
Partly Cloudy
Fog
72°F / 22°C 72°F / 22°C 100% 30.09 in
(1019 mb)
Calm - 1/4SM
05:31
Partly Cloudy
Fog
72°F / 22°C 72°F / 22°C 100% 30.09 in
(1019 mb)
Calm - 1/2SM
05:22
Partly Cloudy
Fog And Mist
72°F / 22°C 72°F / 22°C 100% 30.09 in
(1019 mb)
Calm - 1SM
05:09
Partly Cloudy
Fog And Mist
72°F / 22°C 72°F / 22°C 100% 30.09 in
(1019 mb)
Calm - 2SM
05:04
Partly Cloudy
Fog And Mist
72°F / 22°C 72°F / 22°C 100% 30.09 in
(1019 mb)
Calm - 3/4SM
04:55
Partly Cloudy
Fog And Mist
70°F / 21°C 70°F / 21°C 100% 30.09 in
(1019 mb)
Calm - 1 3/4SM
04:53
Partly Cloudy
Fog And Mist
70°F / 21°C 70°F / 21°C 100% 30.09 in
(1019 mb)
Calm - 3SM
04:45
Mostly Cloudy
Fog And Mist
72°F / 22°C 72°F / 22°C 100% 30.09 in
(1019 mb)
Calm - 4SM
04:41
Partly Cloudy
Fog And Mist
72°F / 22°C 72°F / 22°C 100% 30.09 in
(1019 mb)
Calm - 1 1/4SM
04:13
Obscured
Fog
72°F / 22°C 72°F / 22°C 100% 30.09 in
(1019 mb)
Calm - 1/2SM
03:53
Clear
Fog And Mist
72°F / 22°C 72°F / 22°C 100% 30.09 in
(1019 mb)
Calm - 3/4SM
03:32
Clear
Fog And Mist
72°F / 22°C 72°F / 22°C 100% 30.09 in
(1019 mb)
Calm - 1 3/4SM
03:29
Clear
Fog And Mist
72°F / 22°C 72°F / 22°C 100% 30.09 in
(1019 mb)
Calm - 3SM
03:21
Partly Cloudy
Fog And Mist
72°F / 22°C 72°F / 22°C 100% 30.09 in
(1019 mb)
Calm - 1 1/4SM
03:12
Obscured
Fog And Mist
72°F / 22°C 72°F / 22°C 100% 30.06 in
(1018 mb)
Calm - 3/4SM
03:07
Partly Cloudy
Fog And Mist
72°F / 22°C 72°F / 22°C 100% 30.06 in
(1018 mb)
Calm - 1 3/4SM
02:53
Clear
Fog And Mist
72°F / 22°C 72°F / 22°C 100% 30.06 in
(1018 mb)
Calm - 1 3/4SM
02:36
Clear
Fog And Mist
72°F / 22°C 72°F / 22°C 100% 30.06 in
(1018 mb)
Calm - 3/4SM
02:27
Clear
Fog And Mist
72°F / 22°C 72°F / 22°C 100% 30.06 in
(1018 mb)
Calm - 2SM
02:20
Clear
Fog And Mist
72°F / 22°C 72°F / 22°C 100% 30.06 in
(1018 mb)
Calm - 3SM
01:53
Clear
Fog And Mist
72°F / 22°C 72°F / 22°C 100% 30.09 in
(1019 mb)
Calm - 1 1/4SM
01:50
Clear
Fog And Mist
72°F / 22°C 72°F / 22°C 100% 30.09 in
(1019 mb)
Calm - 1 1/2SM
01:47
Clear
Fog And Mist
73°F / 23°C 73°F / 23°C 100% 30.09 in
(1019 mb)
Calm - 3SM
01:37
Clear
Fog And Mist
72°F / 22°C 72°F / 22°C 100% 30.09 in
(1019 mb)
Calm - 1 3/4SM
01:02
Clear
Fog And Mist
73°F / 23°C 73°F / 23°C 100% 30.06 in
(1018 mb)
NNE 3.5 mph
(NNE 6 kph)
- 3SM
00:53
Clear
Fog And Mist
73°F / 23°C 73°F / 23°C 100% 30.09 in
(1019 mb)
Calm - 1SM
00:41
Clear
Fog And Mist
73°F / 23°C 73°F / 23°C 100% 30.09 in
(1019 mb)
Calm - 2SM
00:25
Clear
Fog And Mist
73°F / 23°C 73°F / 23°C 100% 30.09 in
(1019 mb)
Calm - 1SM
00:09
Clear
Fog
73°F / 23°C 73°F / 23°C 100% 30.09 in
(1019 mb)
Calm - 1/2SM
Time Weather Temperature Dewpoint Humidity Pressure Winds Precip Visibility


Weather for websites

WeatherForYou.com, LLC is not responsible for any damages or problems caused by this service. Current weather conditions are obtained from the closest station including government and personal stations which may have varying degrees of accuracy. Weather forecasts are derived from the NOAA NDFD. Like all things, this site belongs to Jesus Christ... He just trusts us to maintain it. If you have any questions or comments email webmaster@weatherforyou.com

Copyright © 2016, WeatherForYou.com LLC. All rights reserved.